BREEZE-M DEB (TANK), 37604

Orbit data source: Space-Track

BREEZE-M DEB (TANK), 37604 is space debris in HEO originally from a launch on Fri, 20 May 2011 UTC launched from the Tyuratam Missile And Space Complex (TTMTR). Debris objects in space refer to the collection of defunct objects orbiting the Earth. Examples of debris include non-operational satellites, rocket bodies, and fragments generated from explosions, collisions, or faulty payload assembly.

Loading next visibility...
Identifier
37604, 2011-021C
Orbit
HEO
Country
Flag of CISCIS
Related business
Manufacturer
Khrunichev
Mission
Spacecraft
Bus & Motor
BRIZ TANK, Unknown motor
Mass
~1,000 kg wet, 1,000 kg dry
Launch date (UTC)
2011-05-20 (15 years ago)
Launch vehicle
Unknown
Launch site
Tyuratam Missile And Space Complex (TTMTR)
Object type
Payload
Rocket body
Debris
Shape & HBR
Torus, 2.0 m
Radar Cross Section
8.218 m², Large (>1 m²)

Expand to show TLE details & history
Last TLE update: 2 days ago

TLE from 2 days ago
0 BREEZE-M DEB (TANK)
1 37604U 11021C   26171.04787101  .00002699  00000-0  11595-2 0  9999
2 37604  49.3419  52.4721 5810633  59.4078 345.3024  4.27905901220431
Epoch: 2026-06-20T01:08Z
TLE epoch observation values (Epoch: 2026-06-20T01:08:56.055Z)
Latitude
0.00006°
Longitude
126.99408°
Altitude
1,800.335 km
Speed
8.522 km/s
True Right ascension
03h 29m 58s
True Declination
0° 00' 00"
Sunlit
Object was in daylight at epoch
Visualization orbit readout
Latitude
Unknown
Longitude
Unknown
Altitude
Unknown
Speed
Unknown
Apparent Right ascension
Unknown
Apparent Declination
Unknown
Sunlit
N/A
Visualization observer readout
Local Sidereal Time
23:07:56
Azimuth
Unknown
Elevation
Unknown
Doppler factor
Unknown
Orbital elements
Apogee altitude
18,961.754 km
Perigee altitude
336.212 km
Semi-major axis
16,027.12 km
Eccentricity
0.58106
Inclination
49.3419°
RAAN
52.4721°
Arg. of periapsis
59.4078°
True anomaly
300.69205°
Mean anomaly
345.3024°
Eccentric anomaly
327.33222°
Mean motion
1.06969 °/min
Orbital period
336.54 mins
BSTAR
0.0011595
Loading maneuver chart data...
Computing Atmospheric mass density...
Loading historical data...
Loading historical data...
Loading historical data...
Loading historical data...
Loading historical data...
Loading historical data...
Loading historical data...
Other satellites on launch #21 in the year 2011 (2011-05-20 UTC)

Documentation

Showing up to 5 results
|